Location: ??????
(33.3472°N, 35.4764°E)
Time: 06:04:34
(UTC+00:00)

Cosmos 1459 Rocket - Pass Details

Date: 21 August 2019
Orbit: 936 x 1001 km, 83.0° (Epoch: 18 September)

Event Time Altitude Azimuth Distance (km) Brightness Sun altitude
Rises 00:23:47 0° 349° (NNW) 3,649 7.4 -30.2°
Reaches altitude 10° 00:26:20 10° 345° (NNW) 2,690 6.6 -29.8°
Enters shadow 00:30:58 48° 315° (NW) 1,228 4.4 -29.1°
